Regional Weather Roundup
Issued by NWS Little Rock, AR

Home | Current Version | Previous Version | Graphics & Text | Print | Product List | Glossary On
Versions: 1 2 3 4 5 6 7 8 9 10 11 12 13 14 15 16 17 18 19 20 21 22 23 24 25 26 27 28 29 30 31 32 33 34 35 36 37 38 39 40 41 42 43 44 45 46 47 48 49 50
698
ASUS44 KLZK 250405
RWRLZK

WEATHER ROUNDUP FOR ARKANSAS
NATIONAL WEATHER SERVICE LITTLE ROCK AR
1100 PM CDT FRI MAR 24 2017

NOTE: "FAIR" INDICATES FEW OR NO CLOUDS BELOW 12,000 FEET WITH NO
SIGNIFICANT WEATHER AND/OR OBSTRUCTIONS TO VISIBILITY.

ARZ001-003-010-029-250500-
NORTHWEST ARKANSAS

CITY           SKY/WX    TMP DP  RH WIND       PRES   REMARKS
FAYETTEVILLE   CLOUDY    56  54  93 S5        29.82S
FORT SMITH     MOCLDY    58  54  86 NE8       29.80S
HARRISON       LGT RAIN  53  53 100 SE12      29.88F
BENTONVILLE    MOCLDY    55  52  88 S8        29.82R
ROGERS         CLOUDY    56  53  90 SE7       29.82S
SILOAM SPGS    CLOUDY    57  54  88 SE8       29.80S
HIGHFILL       MOCLDY    55  54  96 S8        29.80S
$$

ARZ004-005-016-250500-
NORTH CENTRAL ARKANSAS

CITY           SKY/WX    TMP DP  RH WIND       PRES   REMARKS
BATESVILLE     CLOUDY    70  57  64 S5        29.89S
FLIPPIN        CLOUDY    55  50  82 SW3       29.94R
MTN HOME       RAIN      55  54  96 W6        29.95R FOG
$$

ARZ040-041-250500-
WEST CENTRAL ARKANSAS

CITY           SKY/WX    TMP DP  RH WIND       PRES   REMARKS
MENA           CLOUDY    63  63 100 CALM      29.84F
MOUNT IDA      CLOUDY    60  58  92 CALM      29.82F
$$

ARZ009-017-025-026-028-250500-
NORTHEAST ARKANSAS

CITY           SKY/WX    TMP DP  RH WIND       PRES   REMARKS
CORNING        CLOUDY    68  59  73 SE21G26   29.91F
JONESBORO      MOCLDY    70  59  68 S22G28    29.91F
NEWPORT        CLOUDY    70  61  73 SE16      29.89F
WALNUT RIDGE   CLOUDY    70  57  64 SE24      29.88F
BLYTHEVILLE    CLOUDY    70  59  68 S16G24    29.97F
$$

ARZ022-023-033-042-044-250500-
CENTRAL ARKANSAS

CITY           SKY/WX    TMP DP  RH WIND       PRES   REMARKS
LITTLE ROCK    LGT RAIN  70  61  73 S23G37    29.86F
N LITTLE ROCK    N/A     70  60  72 S13G32    29.85F
JACKSONVILLE   LGT RAIN  72  60  64 S9G21     29.85F
CONWAY           N/A     63  61  94 W24G36    29.92R FOG
SEARCY         CLOUDY    73  60  63 S14       29.89F
HOT SPRINGS    LGT RAIN  62  61  96 S5        29.89R FOG
RUSSELLVILLE   RAIN      57  56  96 CALM      29.91F FOG
CLINTON        RAIN      55  55 100 CALM      29.95F
$$

ARZ036-250500-
EAST ARKANSAS

CITY           SKY/WX    TMP DP  RH WIND       PRES   REMARKS
WEST MEMPHIS   MOCLDY    70  60  70 S25G33    29.94F
$$

ARZ050-053-066-070-073-250500-
SOUTHWEST ARKANSAS

CITY           SKY/WX    TMP DP  RH WIND       PRES   REMARKS
ARKADELPHIA    RAIN      61  60  97 S9        29.91R
CAMDEN         RAIN      70  59  68 S12G20    29.86F
TEXARKANA      CLOUDY    60  58  92 S7        29.84F
EL DORADO      LGT RAIN  70  63  78 SW15      29.92R
DE QUEEN       PTCLDY    63  61  93 S7        29.81F
$$

ARZ056-057-069-250500-
SOUTHEAST ARKANSAS

CITY           SKY/WX    TMP DP  RH WIND       PRES   REMARKS
PINE BLUFF     CLOUDY    73  58  59 S24G33    29.90R
STUTTGART      CLOUDY   N/A N/A N/A S29G35    29.90F
MONTICELLO     CLOUDY    75  59  57 S15G35    29.93S

$$






USA.gov is the U.S. government's official web portal to all federal, state and local government web resources and services.